Time,TemperatureF,DewpointF,PressureIn,WindDirection,WindDirectionDegrees,WindSpeedMPH,WindSpeedGustMPH,Humidity,HourlyPrecipIn,Conditions,Clouds,dailyrainin,SoftwareType,DateUTC
2013-05-18 00:32:00,82.0,-99.9,-100.00,SE,130,1.0,4.0,-999,-99.99,,,-99.99,,2013-05-18 05:32:00,
2013-05-18 00:40:00,78.0,-99.9,-100.00,SSE,152,3.0,5.0,-999,-99.99,,,-99.99,,2013-05-18 05:40:00,
2013-05-18 00:42:00,82.0,-99.9,-100.00,SE,130,1.0,4.0,-999,-99.99,,,-99.99,,2013-05-18 05:42:00,
2013-05-18 01:22:00,78.0,-99.9,-100.00,SSE,152,3.0,5.0,-999,-99.99,,,-99.99,,2013-05-18 06:22:00,
2013-05-18 01:32:00,78.0,-99.9,-100.00,SSE,152,3.0,5.0,-999,-99.99,,,-99.99,,2013-05-18 06:32:00,
2013-05-18 04:50:00,63.0,-99.9,-100.00,SW,214,0.0,2.0,-999,-99.99,,,-99.99,,2013-05-18 09:50:00,
2013-05-18 05:23:00,65.0,-99.9,-100.00,SW,227,1.0,1.0,-999,-99.99,,,-99.99,,2013-05-18 10:23:00,
2013-05-18 05:33:00,63.0,-99.9,-100.00,SW,214,0.0,2.0,-999,-99.99,,,-99.99,,2013-05-18 10:33:00,
2013-05-18 05:42:00,63.0,-99.9,-100.00,SW,214,0.0,2.0,-999,-99.99,,,-99.99,,2013-05-18 10:42:00,
2013-05-18 07:02:00,61.0,-99.9,-100.00,South,188,0.0,1.0,-999,-99.99,,,-99.99,,2013-05-18 12:02:00,
2013-05-18 07:12:00,61.0,-99.9,-100.00,South,188,0.0,1.0,-999,-99.99,,,-99.99,,2013-05-18 12:12:00,
2013-05-18 07:23:00,61.0,-99.9,-100.00,South,188,0.0,1.0,-999,-99.99,,,-99.99,,2013-05-18 12:23:00,
2013-05-18 07:33:00,62.0,-99.9,-100.00,WSW,257,4.0,6.0,-999,-99.99,,,-99.99,,2013-05-18 12:33:00,
2013-05-18 07:42:00,62.0,-99.9,-100.00,WSW,257,4.0,6.0,-999,-99.99,,,-99.99,,2013-05-18 12:42:00,
2013-05-18 10:03:00,87.0,-99.9,-100.00,WSW,258,6.0,9.0,-999,-99.99,,,-99.99,,2013-05-18 15:03:00,
2013-05-18 11:53:00,94.0,-99.9,-100.00,WNW,282,10.0,10.0,-999,-99.99,,,-99.99,,2013-05-18 16:53:00,
2013-05-18 12:03:00,94.0,-99.9,-100.00,WNW,282,10.0,10.0,-999,-99.99,,,-99.99,,2013-05-18 17:03:00,
2013-05-18 12:22:00,96.0,-99.9,-100.00,WNW,294,7.0,9.0,-999,-99.99,,,-99.99,,2013-05-18 17:22:00,
2013-05-18 12:33:00,96.0,-99.9,-100.00,WNW,294,7.0,9.0,-999,-99.99,,,-99.99,,2013-05-18 17:33:00,
2013-05-18 12:40:00,99.0,-99.9,-100.00,West,267,6.0,8.0,-999,-99.99,,,-99.99,,2013-05-18 17:40:00,
2013-05-18 13:02:00,98.0,-99.9,-100.00,NW,319,4.0,8.0,-999,-99.99,,,-99.99,,2013-05-18 18:02:00,
2013-05-18 13:12:00,98.0,-99.9,-100.00,NW,319,4.0,8.0,-999,-99.99,,,-99.99,,2013-05-18 18:12:00,
2013-05-18 13:22:00,99.0,-99.9,-100.00,West,267,6.0,8.0,-999,-99.99,,,-99.99,,2013-05-18 18:22:00,
2013-05-18 13:32:00,99.0,-99.9,-100.00,West,267,6.0,8.0,-999,-99.99,,,-99.99,,2013-05-18 18:32:00,
2013-05-18 17:03:00,101.0,-99.9,-100.00,WSW,240,4.0,9.0,-999,-99.99,,,-99.99,,2013-05-18 22:03:00,
2013-05-18 17:13:00,101.0,-99.9,-100.00,WSW,240,4.0,9.0,-999,-99.99,,,-99.99,,2013-05-18 22:13:00,
2013-05-18 17:40:00,98.0,-99.9,-100.00,WSW,246,6.0,10.0,-999,-99.99,,,-99.99,,2013-05-18 22:40:00,
2013-05-18 18:22:00,98.0,-99.9,-100.00,WSW,246,6.0,10.0,-999,-99.99,,,-99.99,,2013-05-18 23:22:00,
2013-05-18 18:30:00,97.0,-99.9,-100.00,SSW,201,3.0,6.0,-999,-99.99,,,-99.99,,2013-05-18 23:30:00,
2013-05-18 18:32:00,98.0,-99.9,-100.00,WSW,246,6.0,10.0,-999,-99.99,,,-99.99,,2013-05-18 23:32:00,
2013-05-18 19:22:00,97.0,-99.9,-100.00,SSW,201,3.0,6.0,-999,-99.99,,,-99.99,,2013-05-19 00:22:00,
2013-05-18 20:22:00,95.0,-99.9,-100.00,SW,232,1.0,4.0,-999,-99.99,,,-99.99,,2013-05-19 01:22:00,
2013-05-18 20:32:00,95.0,-99.9,-100.00,SW,232,1.0,4.0,-999,-99.99,,,-99.99,,2013-05-19 01:32:00,
2013-05-18 20:42:00,95.0,-99.9,-100.00,SW,232,1.0,4.0,-999,-99.99,,,-99.99,,2013-05-19 01:42:00,
2013-05-18 21:40:00,81.0,-99.9,-100.00,SW,225,1.0,2.0,-999,-99.99,,,-99.99,,2013-05-19 02:40:00,
2013-05-18 22:10:00,77.0,-99.9,-100.00,NW,325,1.0,2.0,-999,-99.99,,,-99.99,,2013-05-19 03:10:00,
2013-05-18 22:22:00,81.0,-99.9,-100.00,SW,225,1.0,2.0,-999,-99.99,,,-99.99,,2013-05-19 03:22:00,
2013-05-18 22:33:00,81.0,-99.9,-100.00,SW,225,1.0,2.0,-999,-99.99,,,-99.99,,2013-05-19 03:33:00,
2013-05-18 22:40:00,76.0,-99.9,-100.00,West,263,0.0,2.0,-999,-99.99,,,-99.99,,2013-05-19 03:40:00,
2013-05-18 22:54:00,77.0,-99.9,-100.00,NW,325,1.0,2.0,-999,-99.99,,,-99.99,,2013-05-19 03:54:00,
2013-05-18 23:03:00,77.0,-99.9,-100.00,NW,325,1.0,2.0,-999,-99.99,,,-99.99,,2013-05-19 04:03:00,
2013-05-18 23:23:00,76.0,-99.9,-100.00,West,263,0.0,2.0,-999,-99.99,,,-99.99,,2013-05-19 04:23:00,
2013-05-18 23:33:00,76.0,-99.9,-100.00,West,263,0.0,2.0,-999,-99.99,,,-99.99,,2013-05-19 04:33:00,